Location: Özdemir Tepe
(36.8667°N, 30.1000°E)
Time: 13:21:58
(UTC+00:00)

Daily predictions for brighter satellites

Satellite Brightness Start Highest point End
(mag) Time Altitude Azimuth Time Altitude Azimuth Time Altitude Azimuth
CZ-3 Stage 3 4.3 15:12:48 10° WSW 15:34:56 47° S 15:41:11 10° E
Cosmos 1959 Rocket 4.5 15:30:01 10° N 15:36:09 71° E 15:42:19 10° SSE
Cosmos 1515 Rocket 3.6 15:32:08 10° S 15:36:32 90° S 15:40:59 10° N
OPS 6432 4.3 15:33:56 10° NNW 15:37:09 59° ENE 15:40:27 10° SE
Nadezhda 3 Rocket 4.5 15:32:27 10° SSE 15:38:01 38° E 15:43:38 10° NNE
USA 215 4.1 15:32:44 10° ENE 15:38:28 32° SE 15:44:09 10° S
SKYMED 2 4.1 15:35:04 10° NNE 15:39:09 39° E 15:43:13 10° SSE
Cosmos 1697 Rocket 4.4 15:38:21 10° NNE 15:40:16 12° NE 15:42:10 10° ENE
Cosmos 2341 Rocket 4.2 15:34:11 10° N 15:40:31 84° W 15:46:44 10° S
Cosmos 1833 Rocket 3.5 15:38:09 10° SSE 15:43:03 31° ESE 15:47:57 10° NE
ERS-1 4.5 15:40:00 10° SSE 15:44:50 58° ENE 15:49:44 10° N
BREEZE-M DEB (TANK) 3.6 15:48:46 10° W 15:51:14 31° NNW 15:57:06 10° NE
AQUARIUS 4.0 15:47:19 10° SSE 15:51:42 75° ENE 15:56:07 10° N
IRS-1C 4.1 15:46:32 10° SSE 15:51:50 84° ENE 15:57:11 10° NNW
USA 59 Rocket 1.8 15:52:03 10° NNE 15:53:16 11° NE 15:53:45 11° ENE
BlueWalker 3 4.0 15:56:46 10° SE 15:57:51 11° SE 15:58:56 10° ESE
SAR-Lupe-4 3.5 15:56:53 10° SSE 16:00:24 62° ENE 16:03:57 10° N
Okean 2 3.6 16:01:03 10° SSW 16:04:52 65° W 16:08:42 10° N
Resurs 01 Rocket 3.0 16:02:28 10° ESE 16:05:15 17° ENE 16:08:04 10° NNE
COSMO-SKYMED 1 2.7 16:02:20 10° NNE 16:06:19 47° E 16:10:16 10° S
Cosmos 2228 Rocket 4.4 16:05:31 10° SE 16:08:40 19° E 16:09:50 17° ENE
Cosmos 1733 Rocket 4.2 16:05:57 10° NNE 16:09:14 20° ENE 16:12:28 10° ESE
Okean 3 3.3 16:07:00 10° S 16:11:03 89° SW 16:15:07 10° N
Cosmos 1933 Rocket 3.5 16:07:35 10° N 16:11:58 88° W 16:16:17 10° S
CZ-4 R/B 4.2 16:10:20 10° SSE 16:14:16 80° ENE 16:18:15 10° N
USA 305 2.9 16:11:22 10° SSW 16:14:41 45° SE 16:16:48 23° ENE
USA 238 DEB 4.3 16:07:13 10° NW 16:14:52 76° WSW 16:23:03 10° SSE
USA 238 4.3 16:07:19 10° NW 16:14:59 76° WSW 16:23:10 10° SSE
ARIANE 5 R/B 3.4 16:10:25 10° S 16:15:31 55° W 16:20:39 10° NNW
Meteor 1-12 Rocket 4.5 16:10:45 10° NNW 16:16:23 74° W 16:22:01 10° S
CARTOSAT-1 4.2 16:15:51 10° SE 16:19:32 30° ENE 16:23:14 10° N
RESURS DK-1 4.3 16:16:47 10° WSW 16:20:11 27° WNW 16:23:37 10° N
Radarsat Rocket 4.1 16:16:24 10° SE 16:22:30 52° ENE 16:28:11 10° N
BREEZE-M DEB (TANK) 3.9 16:25:41 10° NNW 16:26:55 18° NNE 16:26:55 18° NNE
Cosmos 2360 4.1 16:25:54 10° NNW 16:31:36 69° ENE 16:37:16 10° SSE
COSMOS 2455 4.0 16:28:39 10° N 16:33:11 21° NE 16:33:11 21° NE
Cosmos 1339 Rocket 4.4 16:28:09 10° S 16:34:20 85° E 16:40:29 10° N
Meteor 2-8 Rocket 4.4 16:28:27 10° N 16:34:36 69° E 16:40:43 10° SSE
Cosmos 1656 3.6 16:29:38 10° NNW 16:35:13 87° WSW 16:40:42 10° SSE
PSLV R/B 3.4 16:31:22 10° SSE 16:35:26 59° ENE 16:39:32 10° N
Cosmos 1869 Rocket 4.0 16:34:24 10° NNW 16:38:42 63° W 16:42:58 10° S
SJ-7 4.0 16:35:06 10° SSE 16:38:52 78° ENE 16:42:39 10° N
DMSP B5D1-3 4.4 16:36:23 10° NNE 16:41:25 64° ESE 16:46:26 10° S
Resurs 1-3 3.8 16:39:57 10° S 16:44:13 70° W 16:48:31 10° NNW
Helios 1A Rocket 2.3 16:48:13 65° SE 16:48:13 65° SE 16:51:17 10° S
DELTA 2 R/B (1) 3.6 16:44:27 10° W 16:50:02 76° NNW 16:52:03 40° ENE
IRAS Rocket 4.1 16:49:09 10° SSE 16:54:34 64° ENE 17:00:03 10° N
CZ-2D R/B 4.3 16:54:33 10° S 16:58:14 45° W 17:01:55 10° NNW
Cosmos 1862 Rocket 3.6 16:54:43 10° S 16:59:09 79° W 17:02:17 19° N
Cosmos 1980 Rocket 4.0 16:57:28 10° N 16:58:41 15° NNE 16:58:41 15° NNE
Cosmos 1934 Rocket 3.9 16:57:18 10° N 17:03:30 87° W 17:09:46 10° S
Meteosat 1 Rocket2 4.4 17:04:23 10° SW 17:07:44 26° S 17:07:57 26° SSE
YAOGAN 1 4.1 17:04:28 10° SSW 17:08:23 36° W 17:12:19 10° NNW
Cosmos 1707 Rocket 4.2 17:10:28 10° SSW 17:14:40 53° W 17:17:03 24° NNW
NOAA 6 4.4 17:09:42 10° S 17:14:43 61° W 17:19:47 10° NNW
USA 215 3.5 17:18:44 34° NNE 17:21:40 64° NW 17:28:06 10° WSW
Okean 1-7 3.8 17:18:07 10° SSW 17:22:04 47° W 17:23:05 38° NW
Meteor 1-24 Rocket 3.6 17:18:43 10° S 17:24:17 81° E 17:24:51 72° NE
Cosmos 2082 Rocket 3.4 17:19:06 10° S 17:21:44 27° SSE 17:21:44 27° SSE
NOSS 3-1 (C) 4.1 17:17:16 10° NNW 17:24:36 57° NE 17:25:56 52° E
Cosmos 1697 Rocket 2.5 17:19:23 10° NNW 17:25:05 82° ENE 17:25:17 80° ESE
Cosmos 1833 Rocket 4.2 17:21:49 10° WSW 17:26:50 32° WNW 17:31:09 13° N
Meteor 2-5 Rocket 3.8 17:22:23 10° S 17:27:01 62° SSE 17:27:01 62° SSE
BlueWalker 3 4.1 17:31:22 10° SW 17:32:47 22° WSW 17:32:47 22° WSW
Timation 1 Rocket 4.4 17:33:23 10° SSW 17:39:18 74° WNW 17:39:51 68° NNW
Resurs 01 Rocket 2.9 17:37:14 10° SSW 17:41:17 38° W 17:45:22 10° NNW
USA 59 Rocket 1.9 17:38:04 10° NW 17:39:29 23° NW 17:39:29 23° NW
USA 267 4.3 17:54:24 32° N 17:54:24 32° N 17:58:20 10° NNW
COSMOS 2455 4.4 18:13:36 10° NW 18:16:22 28° NW 18:16:22 28° NW
